Dewpoint
58 56 46 43 34 35 32 34 34 33 33 33 33 32 32 33 33 35 58 65 67 68 71 72 73 73 73 73 74 73 73 73 73 73 73 73 73 73 73 73 73 73 73 72 71 70 70 70 70
56 56 46 39 33 28 28 33 34 33 34 34 33 32 31 30 47 59 63 66 67 69 71 72 73 73 73 73 74 73 73 73 73 73 73 73 73 73 73 73 72 73 73 72 72 72 71 71 72
52 56 43 42 37 28 27 32 31 34 35 33 33 32 32 32 49 61 62 67 68 69 71 72 73 73 73 74 74 74 73 73 73 74 74 74 73 73 72 72 72 72 72 72 72 71 71 71 71
53 54 46 37 36 34 31 31 33 31 32 32 33 31 28 39 54 59 67 68 68 68 71 72 73 73 73 73 73 73 73 73 74 74 74 73 73 72 72 72 72 72 72 72 71 71 71 71 70
53 49 40 36 36 38 36 34 33 31 31 31 32 32 27 48 57 66 67 69 68 68 71 72 73 73 73 73 73 73 72 74 74 73 74 73 73 72 72 72 72 72 72 71 71 71 71 70 70
48 47 36 27 31 36 39 37 36 34 32 36 31 31 34 54 65 66 68 68 68 69 71 72 71 72 73 73 73 73 73 73 73 73 73 73 73 72 72 72 72 72 71 71 71 71 71 70 69
43 42 34 29 26 28 37 40 37 36 37 37 35 28 33 54 64 67 68 68 68 69 70 71 71 71 71 72 72 72 73 72 73 73 72 72 72 72 72 71 71 71 71 71 71 71 70 69 69
43 41 34 32 34 32 33 34 39 38 36 41 39 36 44 51 65 67 68 67 67 69 70 70 71 71 71 71 70 71 71 71 71 71 70 69 69 69 70 70 70 70 70 69 69 68 68 68 68
43 35 31 29 32 34 35 34 34 37 38 39 41 36 39 55 65 66 66 66 67 68 69 70 70 70 71 71 69 69 69 69 69 68 67 67 69 69 69 68 68 68 69 69 68 67 66 65 64
34 32 33 36 37 35 36 36 37 32 35 35 38 41 52 61 64 63 63 64 65 66 68 69 69 68 69 70 70 70 70 69 68 68 68 68 69 68 68 66 66 67 67 66 66 64 63 61 59
30 26 34 35 36 36 36 36 37 39 35 38 39 40 53 59 61 62 63 64 64 65 67 67 68 68 68 68 69 69 69 68 68 68 68 68 67 67 67 66 65 64 62 59 57 56 56 56 58
20 26 27 30 35 30 33 36 35 39 39 41 42 42 39 56 59 60 62 64 64 65 66 67 67 67 67 68 68 68 68 67 68 67 67 67 67 66 65 64 61 58 57 54 54 53 53 54 54
16 15 17 22 19 22 30 34 34 32 34 38 41 42 39 46 55 59 63 64 65 65 65 67 67 67 67 67 67 67 66 66 67 66 66 66 66 65 64 61 58 56 55 53 53 53 53 52 52
14 15 16 17 18 19 24 24 32 34 35 39 40 41 41 41 52 58 61 62 64 65 65 66 66 67 66 66 66 66 66 66 66 66 65 65 64 63 61 59 56 55 54 52 52 51 50 50 50
17 15 16 17 17 21 24 23 23 31 33 38 39 40 41 41 41 56 60 62 63 64 65 65 66 66 66 66 66 66 66 66 66 65 65 64 64 62 60 58 56 54 51 50 50 49 49 49 48
15 16 11 15 16 19 22 14 24 32 35 36 38 39 39 41 41 44 57 63 64 64 64 65 65 65 65 65 66 66 65 66 65 64 64 64 63 61 59 57 55 53 51 51 50 49 48 48 47
12 4 11 10 17 23 27 24 30 33 38 37 37 38 39 39 39 40 43 61 64 64 64 65 65 65 65 65 65 65 65 65 65 64 64 63 63 60 58 57 55 52 51 50 49 49 49 47 46
8 8 15 14 15 20 24 28 30 33 33 38 40 39 38 38 36 36 39 51 61 64 64 65 65 65 65 65 65 65 64 64 65 64 63 63 62 60 57 56 54 52 51 50 49 48 48 47 46
18 12 16 17 19 26 26 26 30 33 33 34 36 37 35 35 34 34 36 42 45 59 62 63 64 64 65 64 63 63 63 63 64 63 63 62 61 58 57 56 55 52 51 50 48 47 46 46 48
18 6 10 17 20 24 25 23 29 32 30 32 33 33 33 34 33 33 34 37 41 46 54 61 64 64 65 64 64 63 63 64 63 63 62 62 60 58 57 56 54 52 50 49 48 48 48 49 50
12 7 18 18 22 25 26 23 25 32 28 26 30 32 32 32 33 32 32 35 38 40 44 48 61 64 64 64 64 62 63 63 61 61 61 61 60 58 57 56 55 53 51 49 48 50 50 50 49
5 21 20 20 18 16 25 15 17 23 24 23 25 29 30 31 32 32 31 33 36 38 43 47 54 62 63 63 62 61 60 60 61 61 61 61 60 58 57 57 56 54 52 50 49 51 52 52 49
11 21 19 19 18 20 21 9 11 19 18 20 24 26 29 31 31 32 31 32 35 38 41 44 49 60 62 62 61 61 61 61 61 61 61 61 59 58 57 56 55 53 52 50 50 51 50 52 52
21 15 19 23 21 13 15 5 3 14 17 19 22 23 28 29 31 31 31 32 33 36 38 41 44 49 60 62 61 60 60 60 60 60 60 60 59 58 57 57 56 55 53 51 50 51 51 52 52
11 5 1 1 4 10 19 7 6 13 16 21 22 22 25 27 28 30 30 31 32 34 36 38 41 45 53 61 60 60 60 60 60 60 59 59 58 58 57 57 56 55 54 52 52 51 51 51 51
8 2 -3 -7 -2 6 10 0 8 15 18 21 21 22 23 25 26 28 30 31 31 32 34 36 38 40 45 58 59 60 60 60 60 60 60 59 58 58 58 57 57 56 54 53 52 52 51 51 50
7 6 10 1 4 3 -1 3 13 18 16 17 19 20 21 24 25 26 29 30 31 31 33 34 36 37 41 44 57 59 60 59 59 60 60 60 59 58 58 57 57 56 54 53 52 52 51 51 49
9 10 2 1 -5 -8 -2 -4 1 5 8 12 12 13 17 21 24 25 26 29 31 31 32 33 34 35 37 39 43 47 56 59 59 59 59 59 59 58 57 57 56 56 54 53 51 51 51 50 50
7 4 2 1 -3 -8 -6 -0 2 7 7 8 10 14 12 17 21 23 25 28 29 30 31 32 33 33 34 36 38 42 45 49 59 58 58 59 58 57 57 57 56 55 54 53 52 51 51 49 51
-1 -2 -6 -2 -4 -5 -2 2 4 7 7 9 11 13 14 15 18 21 24 25 27 28 29 30 31 32 33 34 35 38 42 45 49 57 57 58 58 57 57 56 56 55 54 52 52 52 50 49 50
Lifted_Index
4 3 3 4 4 4 4 4 4 3 2 2 2 2 3 4 4 3 2 0 -1 -3 -4 -5 -5 -4 -4 -4 -4 -3 -3 -4 -4 -4 -5 -5 -5 -5 -4 -4 -4 -4 -4 -3 -2 -2 -1 -1 -1
4 4 4 4 4 3 4 4 4 3 3 2 2 3 3 4 3 2 1 -0 -2 -3 -4 -5 -5 -4 -4 -4 -4 -3 -3 -4 -4 -5 -5 -5 -5 -5 -4 -4 -4 -4 -3 -3 -3 -2 -2 -1 -1
5 5 5 5 4 3 4 4 4 4 3 3 3 4 4 3 2 1 -0 -2 -3 -4 -4 -5 -5 -5 -4 -4 -4 -4 -3 -4 -4 -5 -5 -5 -5 -5 -4 -4 -4 -3 -3 -3 -3 -3 -2 -2 -2
5 6 6 6 5 4 4 4 4 4 3 4 4 4 4 3 1 -0 -1 -3 -3 -4 -5 -5 -5 -5 -5 -4 -4 -4 -3 -4 -4 -5 -5 -5 -5 -5 -5 -4 -4 -4 -3 -3 -3 -2 -2 -2 -2
6 6 7 6 6 6 5 5 4 3 3 4 4 4 3 2 0 -1 -3 -3 -3 -4 -5 -5 -5 -5 -5 -4 -4 -3 -4 -4 -4 -5 -5 -5 -5 -5 -5 -4 -4 -4 -3 -3 -3 -2 -2 -2 -2
7 7 6 6 7 8 7 5 4 3 3 3 4 4 4 2 -1 -2 -3 -4 -4 -4 -5 -5 -5 -5 -5 -4 -4 -4 -4 -4 -4 -4 -5 -5 -5 -4 -4 -4 -4 -4 -3 -3 -3 -3 -2 -2 -1
9 8 7 6 7 8 9 7 4 3 2 3 4 4 4 1 -1 -3 -4 -4 -4 -4 -5 -5 -5 -5 -4 -4 -3 -3 -4 -4 -4 -4 -4 -4 -4 -4 -4 -4 -4 -3 -3 -3 -3 -2 -2 -1 -1
10 9 8 8 8 9 10 9 6 4 3 3 3 4 3 1 -2 -4 -4 -4 -4 -4 -5 -5 -5 -4 -4 -4 -3 -3 -3 -3 -3 -3 -3 -3 -3 -3 -3 -3 -3 -3 -2 -2 -2 -2 -1 -0 -0
12 11 10 9 9 9 9 9 8 6 4 3 3 4 3 0 -3 -4 -4 -4 -4 -4 -5 -5 -5 -4 -4 -3 -3 -3 -3 -3 -3 -3 -3 -3 -3 -3 -3 -3 -2 -2 -1 -1 -1 -1 -0 0 0
13 12 12 11 11 10 10 9 9 8 6 4 4 4 2 -0 -3 -4 -4 -4 -4 -4 -5 -5 -5 -4 -3 -3 -3 -2 -2 -2 -2 -2 -3 -3 -2 -2 -2 -2 -1 -1 -1 -1 -1 -0 -0 0 0
12 13 13 12 12 11 10 10 9 8 7 6 5 4 2 -0 -2 -3 -4 -4 -4 -4 -5 -5 -4 -4 -3 -3 -2 -2 -2 -2 -2 -2 -2 -2 -2 -2 -2 -2 -1 -0 -0 -0 -0 -0 -0 0 0
11 12 13 13 13 13 12 10 9 9 8 7 7 6 4 1 -1 -2 -3 -4 -4 -4 -4 -4 -4 -4 -3 -3 -2 -2 -2 -2 -2 -2 -2 -2 -2 -2 -2 -2 -1 -0 -0 -0 -0 -0 -0 0 0
10 11 12 13 14 14 13 11 10 9 8 8 8 7 5 3 0 -2 -3 -4 -4 -4 -4 -4 -4 -4 -3 -3 -2 -2 -2 -2 -2 -2 -2 -2 -2 -2 -2 -2 -1 -1 -0 -0 -0 -0 0 0 1
9 10 11 12 12 13 12 11 11 10 8 8 7 7 6 4 1 -1 -3 -3 -4 -4 -4 -4 -4 -4 -3 -3 -3 -2 -2 -2 -2 -2 -2 -2 -2 -2 -2 -1 -1 -1 -0 -0 -0 -0 0 1 1
8 9 10 10 10 10 10 10 10 10 9 7 7 6 5 3 1 -0 -2 -3 -4 -4 -4 -4 -4 -3 -3 -3 -2 -3 -3 -2 -2 -2 -2 -2 -2 -2 -1 -1 -1 -0 -0 -0 0 0 1 1 2
7 7 8 8 8 8 7 7 7 8 8 7 6 5 5 4 2 0 -1 -2 -4 -4 -4 -4 -4 -4 -3 -2 -2 -2 -3 -3 -3 -2 -2 -2 -2 -2 -1 -1 -0 -0 -0 0 1 1 2 2 2
4 5 6 7 7 6 5 5 5 5 6 5 5 4 5 5 3 2 0 -1 -3 -4 -4 -3 -4 -4 -3 -2 -2 -2 -3 -3 -3 -3 -2 -2 -2 -2 -1 -1 -1 -0 -0 0 1 2 2 2 3
3 3 4 5 5 5 5 4 3 3 3 4 4 4 4 5 5 3 1 -0 -2 -3 -3 -3 -4 -4 -3 -3 -2 -2 -3 -3 -3 -2 -2 -2 -2 -2 -1 -1 -1 -1 -0 1 1 2 3 3 3
2 2 2 3 3 3 3 3 3 2 2 3 3 3 3 4 4 4 2 1 -0 -1 -2 -2 -3 -4 -3 -3 -2 -2 -2 -2 -2 -2 -2 -1 -1 -1 -1 -1 -1 -0 -0 0 1 2 3 3 3
2 2 1 2 2 2 2 3 3 2 2 3 3 3 3 3 3 4 3 2 1 1 0 -1 -2 -3 -3 -3 -3 -2 -2 -2 -2 -2 -1 -2 -1 -1 -1 -1 -1 -0 -0 0 1 2 2 2 2
2 2 1 1 2 2 2 2 2 3 3 3 4 4 3 2 2 3 3 2 1 1 1 0 -1 -3 -3 -3 -3 -2 -2 -2 -2 -1 -2 -2 -2 -1 -1 -1 -0 -0 -0 -0 1 1 2 2 2
3 3 2 2 2 1 1 1 2 2 3 3 4 4 4 2 2 3 3 3 2 1 1 1 -0 -2 -3 -3 -3 -2 -2 -2 -1 -1 -1 -2 -2 -2 -1 -1 -0 -0 -0 -0 0 1 1 2 2
3 3 3 2 1 1 1 1 2 2 3 3 4 4 4 3 2 2 3 3 3 2 1 0 -0 -1 -2 -2 -2 -2 -2 -2 -1 -1 -1 -1 -2 -2 -1 -1 -0 0 -0 -0 0 1 1 1 2
3 3 2 2 1 1 1 2 2 3 4 4 4 4 4 4 3 2 2 3 3 3 2 0 -1 -1 -2 -2 -2 -2 -2 -1 -1 -1 -0 -1 -1 -1 -1 -1 -0 -0 -0 -0 -0 0 0 1 1
3 2 1 1 1 1 1 2 3 4 5 5 5 5 5 4 3 2 2 2 2 3 2 1 -0 -1 -1 -2 -2 -1 -1 -1 -1 -0 -0 -0 -1 -1 -1 -1 -1 -0 -0 -1 -0 -0 0 1 1
2 1 1 0 0 1 1 1 3 4 5 6 6 6 6 5 4 4 3 2 2 2 2 1 -0 -0 -1 -1 -1 -1 -1 -1 -1 -0 -0 0 -0 -1 -1 -1 -1 -1 -1 -1 -1 -0 -0 0 1
2 2 1 1 1 1 1 1 2 3 4 5 6 6 6 6 6 5 4 3 2 2 2 1 1 -0 -1 -1 -1 -1 -1 -1 -0 -0 -0 0 0 -0 -1 -1 -1 -1 -1 -1 -1 -0 -0 0 0
3 3 2 2 1 0 0 1 1 2 2 3 4 6 6 7 7 7 6 5 4 3 3 2 1 0 -0 -0 -0 -0 -0 -0 -0 0 0 0 0 0 -0 -0 -1 -1 -1 -1 -0 -0 -0 -0 0
5 4 3 2 1 1 0 1 2 3 3 3 4 5 7 8 8 8 8 7 6 5 4 3 2 1 1 0 1 1 0 -0 -0 0 0 0 0 0 1 0 0 -0 -1 -1 -0 -0 -0 -0 0
7 5 3 2 1 1 1 2 3 4 4 4 4 5 7 9 9 9 9 8 7 5 4 3 3 2 1 1 1 1 1 0 -0 0 0 0 0 1 1 1 1 0 -0 -0 -0 -0 -0 -0 0